Theta_e
313 309 306 309 311 313 311 312 309 314 321 318 316 317 318 322 322 323 325 326 328 329 334 337 340 341 342 345 348 352 353 363 359 355 352 350 348 346 345 339 337 333 332 334
310 306 311 313 310 309 310 311 311 315 320 318 316 315 318 321 322 322 323 326 328 330 331 335 338 341 342 345 349 354 354 361 360 354 355 351 347 344 337 334 333 334 334 335
307 310 311 310 309 307 308 309 310 311 315 317 313 310 315 319 321 322 323 325 328 330 331 334 336 340 342 345 349 353 360 357 360 357 352 346 340 336 340 330 329 332 333 334
309 312 308 308 307 309 305 311 311 310 310 305 312 300 309 313 315 318 320 323 326 329 332 335 337 341 345 347 351 355 357 355 353 352 344 339 334 330 328 329 331 330 333 334
307 308 307 305 306 309 307 311 310 310 307 307 306 303 307 311 311 315 319 321 324 327 331 333 338 345 347 350 352 355 355 350 351 347 341 337 333 334 337 329 334 338 338 335
310 314 311 309 309 310 311 309 309 309 307 300 305 304 305 309 312 315 318 320 323 325 327 331 338 345 348 351 354 355 353 351 348 339 334 335 334 334 328 330 329 329 331 333
308 308 311 311 307 310 309 306 299 297 297 297 307 304 307 313 315 316 316 318 321 324 325 329 334 340 351 353 352 351 350 345 343 339 338 334 336 341 335 336 329 331 329 330
304 301 308 311 308 307 307 306 299 293 295 299 307 301 306 314 316 317 318 319 321 324 327 328 332 339 349 352 351 345 344 342 341 338 337 337 339 333 330 335 330 329 329 332
304 303 310 311 312 310 307 304 309 303 304 300 304 307 313 314 314 315 316 318 321 322 324 328 328 339 348 349 348 342 340 341 341 339 338 338 337 335 332 338 344 332 340 334
309 303 309 310 311 312 310 312 304 305 297 295 301 303 304 311 312 315 316 318 320 322 325 327 328 336 349 347 348 342 340 343 342 341 340 337 336 338 338 339 339 340 340 336
311 308 307 310 307 305 307 305 308 308 305 298 297 301 313 313 316 316 318 319 321 322 325 328 331 337 349 349 345 346 340 340 342 341 341 340 338 338 339 339 337 337 337 335
312 309 304 306 312 312 309 308 308 301 301 304 303 302 314 315 316 318 318 320 322 323 324 328 333 338 343 347 344 342 343 342 341 341 341 341 338 338 339 338 337 335 334 333
314 308 302 304 308 311 307 308 309 311 311 304 300 303 316 317 317 318 318 319 321 323 326 329 334 338 340 342 343 343 343 343 343 341 341 342 339 339 339 339 338 335 332 330
315 312 306 300 305 309 307 307 308 308 303 302 303 306 311 313 315 317 318 320 321 321 324 327 331 335 339 341 342 343 343 342 344 340 341 341 340 338 335 336 335 333 329 324
313 307 308 308 308 309 307 307 308 307 307 303 306 306 310 314 316 318 320 321 321 322 322 324 328 332 336 339 342 343 344 344 345 339 338 340 340 336 334 332 331 328 322 317
314 306 309 305 308 308 305 307 307 307 307 307 308 308 314 316 317 317 319 320 320 321 322 323 325 329 331 334 339 342 343 343 343 339 336 337 335 333 330 330 326 321 314 313
311 309 307 302 306 306 302 306 308 308 310 309 305 310 315 315 316 317 318 320 320 321 323 324 325 327 330 330 336 339 343 343 340 336 334 332 331 330 328 325 319 315 311 311
307 307 306 302 305 296 306 312 312 309 310 312 312 313 315 315 318 319 322 321 322 323 324 325 326 329 331 332 334 340 341 342 337 333 330 330 327 324 323 319 317 315 312 313
311 308 301 299 299 304 306 310 310 308 308 314 313 314 315 317 318 318 321 322 323 324 328 329 331 332 334 334 336 338 340 339 334 330 329 327 325 321 318 318 313 313 312 311
309 313 306 301 297 294 306 311 315 314 305 314 315 315 315 316 310 314 326 327 327 329 332 334 332 333 335 336 337 338 337 336 332 329 328 326 323 320 317 315 312 313 310 310
303 305 301 301 300 303 310 313 316 303 306 318 318 318 318 315 318 326 326 325 329 331 331 332 333 334 334 335 337 335 335 333 332 330 327 324 322 318 316 313 308 310 310 310
299 299 298 299 296 297 312 312 306 318 321 319 319 320 320 321 322 323 324 325 327 328 329 330 333 334 335 335 335 334 333 333 332 327 323 320 317 312 309 308 308 309 308 307
298 303 301 301 302 311 310 313 322 324 320 319 320 321 321 321 321 322 323 324 326 327 330 332 331 331 332 333 334 333 332 331 324 321 315 309 308 308 308 306 306 306 308 306
304 305 301 303 307 308 308 312 315 321 320 321 321 320 320 319 321 321 322 324 326 327 328 330 328 327 327 328 328 329 327 326 314 308 306 306 305 305 306 306 306 305 308 306
299 302 302 303 308 310 310 310 311 313 316 315 316 316 317 317 317 319 319 321 323 326 328 328 326 326 324 324 324 325 319 315 309 307 306 304 304 304 303 304 305 306 309 307
300 299 296 294 304 302 307 310 310 309 311 312 313 313 315 317 316 315 315 317 319 322 325 326 325 323 321 321 320 318 314 313 309 305 304 304 303 303 303 302 302 295 297 297
Wind_Speed
17 14 15 17 16 20 12 13 21 18 18 19 16 19 14 15 13 15 15 15 18 19 20 20 19 17 17 16 15 13 13 10 10 9 8 7 6 5 4 4 5 6 6 6
16 15 18 18 4 10 14 19 18 11 12 11 16 18 15 15 19 17 15 17 19 19 20 22 21 19 17 15 15 14 14 13 9 8 4 5 7 5 5 5 6 7 7 5
17 15 20 15 12 14 16 17 15 14 11 10 14 19 16 16 18 14 15 16 20 20 21 19 21 21 17 15 15 15 13 14 9 7 8 6 6 6 3 6 6 7 8 7
13 16 8 15 13 18 18 17 19 15 12 12 20 15 19 21 19 18 17 16 19 21 20 20 20 17 17 17 16 17 15 14 11 12 10 10 6 6 6 7 6 7 8 8
15 15 15 16 18 21 17 18 15 17 14 16 18 10 13 20 11 11 15 15 16 20 21 22 21 19 17 17 18 16 18 17 16 13 12 9 11 7 5 7 10 7 7 8
16 15 11 16 19 15 15 19 17 15 16 18 20 20 15 15 15 18 16 17 16 18 22 22 20 20 17 15 17 18 19 17 18 15 19 22 14 10 9 10 9 9 8 7
17 19 14 15 19 10 16 13 12 15 16 16 20 22 15 20 13 16 7 12 10 17 18 18 20 18 20 20 20 17 19 19 19 18 15 16 14 10 13 11 11 11 9 9
13 16 21 17 18 16 17 17 15 19 18 20 25 24 18 13 11 12 13 8 8 11 11 9 18 19 23 22 22 19 20 17 17 14 11 11 15 10 9 12 11 10 9 8
13 14 3 16 18 20 19 18 19 22 22 19 17 7 14 8 10 9 11 9 11 9 5 6 15 17 24 22 21 22 21 17 13 12 13 15 15 15 12 14 10 9 7 10
15 15 9 11 11 17 16 11 12 11 18 21 14 15 12 9 9 11 11 12 10 9 3 8 8 10 24 21 21 22 22 17 15 16 16 15 16 15 12 13 11 10 8 9
14 14 14 12 13 18 14 17 14 13 13 14 15 14 8 6 12 11 12 10 9 7 7 7 7 10 18 19 20 20 21 22 15 14 15 16 17 15 13 12 12 11 11 11
16 8 15 20 14 18 21 18 21 15 18 14 14 16 12 2 6 10 11 9 8 6 7 10 9 12 16 21 20 19 18 21 18 15 16 14 14 14 14 13 14 14 12 11
5 9 14 18 16 12 11 18 17 16 11 17 17 13 9 10 9 12 10 11 12 11 9 7 10 13 15 17 18 21 21 21 18 15 17 16 16 16 15 15 14 14 12 11
4 12 16 15 17 15 17 21 20 20 16 18 19 22 20 18 11 13 13 14 12 12 11 14 14 13 14 15 17 20 21 21 19 17 19 19 18 17 15 15 14 14 14 11
10 17 20 23 24 25 25 20 18 21 21 21 19 22 19 17 11 16 13 15 13 13 13 13 13 12 14 14 15 17 19 20 19 18 18 16 16 15 15 15 15 14 13 10
15 18 18 26 26 28 28 27 25 24 24 23 21 23 20 19 19 16 10 11 13 13 14 14 13 14 15 14 16 16 18 17 16 15 14 14 15 15 15 16 17 15 13 10
15 14 16 23 23 25 33 27 26 25 25 22 23 22 18 19 18 20 14 14 15 15 14 13 10 8 8 10 11 15 16 16 16 15 14 14 14 13 14 15 17 15 14 13
20 19 16 18 20 30 22 22 25 26 25 25 23 23 22 20 20 16 14 17 12 10 9 7 6 6 6 8 10 12 14 16 14 15 14 14 14 14 13 15 16 12 12 12
22 20 18 19 20 26 27 19 21 26 24 20 19 19 20 18 16 15 16 9 11 8 5 5 6 7 6 7 6 10 13 15 15 15 13 15 16 15 17 17 15 14 13 9
25 21 17 19 21 32 22 23 24 20 24 18 19 20 16 13 13 10 13 8 7 5 3 1 1 1 1 2 5 8 12 14 17 17 15 15 15 16 16 14 14 10 10 9
14 13 20 20 23 27 24 25 17 17 13 10 12 13 16 15 5 7 2 3 4 3 3 3 1 1 3 4 6 9 12 14 15 14 14 13 14 15 14 12 12 7 7 3
23 14 10 10 19 30 20 19 30 18 7 3 5 4 2 3 2 1 2 2 1 2 3 2 2 2 2 4 6 9 11 11 13 11 13 14 14 12 13 15 11 10 8 10
19 20 16 11 7 19 21 22 14 11 5 4 3 3 3 3 4 3 4 3 4 3 2 1 3 3 1 4 6 9 7 9 13 15 13 14 15 14 15 13 11 8 8 10
17 6 10 18 22 18 19 15 27 22 7 4 4 3 3 5 2 3 4 4 5 5 4 3 4 4 5 4 4 6 11 14 17 18 16 15 16 15 13 9 8 7 8 7
11 15 14 23 23 21 15 4 11 20 18 6 6 6 8 4 4 4 5 4 4 6 3 3 5 3 5 6 7 9 13 18 17 17 15 14 13 13 12 9 9 7 13 12
16 21 14 11 17 13 20 15 7 11 17 16 11 10 11 12 7 8 8 8 6 5 5 5 5 4 6 8 10 11 13 16 17 15 13 12 11 11 11 11 9 3 9 9
Wind_Direction
201 224 221 233 225 263 318 265 238 228 172 195 247 209 254 169 212 210 205 199 201 203 196 197 196 200 193 190 186 183 192 176 170 181 183 159 173 151 144 137 154 137 124 117
229 229 250 235 332 293 275 260 228 199 147 194 225 238 259 236 194 212 225 201 203 208 209 197 198 205 202 194 188 184 193 163 188 180 158 164 157 132 152 131 152 131 135 137
238 239 217 248 231 238 249 258 250 247 159 206 251 267 257 244 244 228 219 242 200 206 208 208 203 201 202 194 188 186 175 160 182 141 134 116 97 125 136 132 166 155 151 133
237 245 235 258 243 233 237 229 265 272 172 222 202 246 239 237 241 234 238 221 233 200 208 203 206 197 200 194 181 183 142 144 149 153 154 156 157 156 179 177 159 161 151 142
233 227 252 234 243 238 246 257 220 255 257 252 249 245 264 274 244 224 220 238 238 221 204 205 194 192 193 193 179 160 154 153 168 168 162 162 168 183 175 184 139 167 156 155
250 272 244 237 248 244 252 248 261 254 241 240 240 261 245 243 241 236 233 230 221 234 222 205 195 177 184 189 155 161 165 176 177 168 167 168 183 173 183 164 172 179 171 169
224 236 222 258 229 221 237 230 235 233 239 245 243 244 238 262 241 288 257 268 246 214 224 208 188 183 141 158 164 167 171 181 192 186 183 161 169 176 186 163 186 183 178 177
239 220 212 203 234 229 208 231 237 233 233 238 231 232 240 258 259 269 293 272 296 288 291 285 200 174 151 166 172 162 178 201 197 191 172 165 165 176 187 182 191 192 182 177
268 249 100 213 206 232 245 211 236 257 271 281 281 177 234 208 230 249 256 227 230 251 273 300 285 175 149 170 173 168 182 194 205 199 188 187 176 172 193 185 206 192 178 138
251 265 266 233 245 247 252 287 236 240 258 267 266 253 262 170 187 225 224 224 228 244 226 262 249 174 153 169 184 185 195 201 194 194 195 195 182 181 190 177 193 185 165 157
230 252 262 246 212 240 206 241 252 272 267 256 246 251 4 237 192 209 223 223 229 245 198 193 211 173 162 174 190 200 196 214 208 198 195 188 187 184 190 177 185 168 164 160
232 243 248 252 231 232 246 236 224 240 243 254 281 286 306 267 263 235 221 226 214 238 261 175 190 173 184 182 192 199 204 203 215 200 195 187 182 182 183 178 185 171 160 159
248 225 250 250 258 213 245 252 257 262 274 268 281 268 230 251 229 264 236 232 226 212 209 218 189 184 191 190 193 192 204 209 216 192 190 185 185 184 176 179 175 164 155 164
345 268 257 263 265 264 231 226 240 237 236 250 244 257 257 261 212 232 241 255 254 268 217 202 201 196 199 202 201 198 193 205 213 193 203 186 186 181 173 175 163 161 151 151
240 256 260 262 260 272 281 275 235 232 246 244 262 264 270 276 263 222 230 227 234 258 252 257 205 224 197 203 209 206 201 200 201 204 199 189 185 176 173 172 150 153 141 133
242 251 266 270 267 264 262 257 259 259 267 260 245 250 263 268 279 278 252 264 275 262 256 248 244 219 219 216 197 212 207 206 198 203 189 179 176 175 172 151 154 151 140 143
302 295 270 257 260 264 257 253 259 254 255 261 261 266 267 271 257 254 241 251 246 249 248 258 275 291 299 279 220 201 206 198 196 194 185 176 171 168 160 151 154 152 151 139
262 264 277 271 268 251 263 256 260 262 262 264 260 264 268 268 273 275 231 246 253 264 276 259 255 260 257 242 249 201 198 187 181 181 186 162 157 155 157 159 168 156 150 157
238 248 255 254 255 260 254 255 255 261 255 266 269 267 272 272 267 256 271 286 283 287 7 341 325 308 290 263 230 200 189 178 181 174 175 158 155 161 161 177 163 157 149 148
230 231 239 243 245 246 259 259 261 252 249 249 256 253 251 265 258 265 42 34 48 62 70 73 318 321 269 178 182 179 186 179 186 183 171 164 163 160 161 169 150 151 149 158
267 228 230 236 244 258 264 277 281 248 281 277 251 270 255 254 248 67 67 65 83 31 113 116 163 188 136 158 167 195 188 185 189 172 167 162 155 151 151 144 134 124 119 181
262 255 239 286 271 248 349 272 246 271 267 265 268 279 272 285 330 309 326 347 354 228 174 175 185 163 125 177 182 200 189 186 180 158 145 134 140 128 130 131 131 136 146 128
255 256 268 200 236 300 314 305 348 342 268 241 248 42 197 245 239 228 231 251 281 311 234 179 237 167 218 203 204 204 160 157 124 123 116 116 118 123 128 129 133 135 163 166
293 4 296 288 267 262 260 313 339 320 323 39 85 292 277 269 308 290 277 278 281 260 252 222 221 202 179 197 201 148 132 129 116 117 122 125 126 126 124 133 138 144 187 196
262 317 306 301 286 286 263 33 358 343 322 340 354 342 320 305 293 290 289 273 294 301 242 247 250 211 172 175 146 135 129 129 124 125 129 129 129 131 136 145 156 172 215 200
261 263 264 269 304 305 302 325 340 314 313 328 324 320 310 303 294 314 294 284 268 243 212 208 203 220 193 162 158 136 139 138 133 133 137 142 142 146 153 165 182 113 116 89